Theta_e
288 289 290 291 289 288 288 289 289 289 289 289 289 289 290 291 291 291 291 291 291 291 292 292 293 294 293 294 298 297 296 297 295 297 292 291 293 297 298 303 306 306 307
288 288 290 290 290 289 288 289 289 288 289 289 289 290 290 291 291 291 290 291 290 290 291 291 291 293 293 293 294 294 297 297 295 294 291 290 291 293 295 296 298 303 305
288 287 289 287 288 286 287 288 288 288 288 289 289 289 290 290 290 290 290 290 291 291 291 291 290 291 292 293 294 294 294 298 297 295 295 287 287 291 288 290 291 292 295
287 287 287 288 288 287 287 288 288 288 288 288 289 289 290 290 290 290 290 290 290 291 291 291 291 291 291 291 291 292 294 294 293 293 289 287 287 287 288 287 287 288 289
285 286 288 288 287 287 287 287 287 288 288 289 288 289 289 289 289 289 289 290 290 290 291 291 292 291 289 291 293 293 292 289 289 292 289 286 286 285 288 287 287 286 286
284 286 287 286 286 287 287 287 287 287 287 288 288 287 288 288 290 290 290 290 290 289 289 290 291 288 289 291 292 293 294 291 288 291 287 290 286 286 287 288 286 286 286
285 287 285 285 285 286 286 286 286 286 287 287 286 287 287 288 290 291 291 290 289 289 289 289 288 290 288 290 291 293 293 294 294 293 291 289 286 287 287 286 286 286 285
283 284 284 284 285 285 285 285 286 286 286 286 286 286 286 287 289 290 290 290 290 289 289 289 288 287 288 288 288 288 289 290 292 294 294 290 288 289 289 287 286 283 283
278 283 281 285 284 285 285 285 285 285 285 285 285 285 285 286 288 289 290 288 286 287 287 288 288 287 289 291 287 287 287 287 293 293 293 293 292 291 289 287 285 285 279
278 280 280 280 284 285 285 284 285 284 284 284 285 285 285 285 287 289 291 286 286 285 287 287 286 287 289 291 288 287 286 286 286 286 285 285 286 286 287 287 287 282 280
278 278 279 279 284 285 285 285 284 283 283 281 284 285 285 285 286 290 291 287 286 285 285 286 286 289 290 291 291 288 286 286 285 283 282 281 280 280 280 281 282 283 280
276 276 277 277 280 283 284 283 283 283 279 278 283 284 284 285 286 288 289 289 288 285 284 285 286 291 292 291 288 289 287 285 283 281 279 277 277 276 276 276 276 276 277
278 278 275 277 280 280 283 282 282 282 282 280 282 282 283 284 284 286 288 287 287 284 285 287 288 288 288 288 288 286 283 282 281 278 276 276 276 277 277 276 276 275 273
277 280 277 277 279 279 280 283 283 282 282 282 282 282 283 283 283 284 284 284 284 284 284 284 285 284 284 283 282 282 282 281 280 278 277 277 277 276 275 276 274 274 271
277 279 279 278 279 278 277 279 282 284 285 283 283 283 282 282 284 286 285 283 283 284 283 283 281 281 280 280 280 280 281 280 279 278 277 275 274 273 271 272 272 271 269
278 279 280 279 279 278 276 276 283 284 285 286 287 286 284 286 287 287 286 285 285 284 280 279 278 279 278 278 278 278 278 277 277 276 274 273 271 269 268 268 268 268 266
278 279 279 278 278 278 274 276 275 278 284 284 284 285 286 286 286 286 285 284 283 281 277 276 275 275 275 275 275 274 273 273 274 273 272 271 269 267 266 265 265 264 262
276 276 279 279 279 278 275 275 274 273 275 276 280 281 283 283 283 284 282 279 275 275 274 273 273 274 274 274 273 272 271 271 270 270 269 268 266 265 264 263 262 261 261
275 278 279 280 278 278 274 273 273 271 275 274 273 277 276 278 278 279 279 274 272 271 271 270 270 270 269 269 268 268 268 267 266 266 265 264 264 263 261 261 260 260 260
276 277 276 278 277 277 274 274 272 271 272 272 268 267 271 271 272 269 268 268 268 267 267 266 266 266 266 267 266 266 265 264 263 262 261 261 261 261 259 258 258 257 256
278 276 278 276 277 279 277 276 275 272 270 266 266 267 272 265 263 261 261 262 261 262 262 263 263 262 263 264 264 263 262 261 261 261 261 260 260 258 258 258 257 256 256
278 278 275 278 279 279 278 278 276 273 272 269 265 268 273 264 262 261 258 258 257 256 257 261 260 258 257 261 262 262 261 260 259 259 259 259 258 258 257 256 255 254 253
278 278 276 277 279 279 278 277 275 274 273 270 265 262 260 261 259 258 259 256 257 259 258 260 260 258 257 257 257 261 261 260 259 260 259 258 257 257 256 255 254 252 250
279 279 278 278 278 278 278 276 275 273 272 268 265 262 261 260 259 258 256 256 257 257 258 258 258 257 257 257 257 258 259 259 259 258 259 258 256 255 255 254 253 248 248
279 279 278 278 278 278 278 277 275 272 270 268 265 263 260 260 259 258 257 257 258 258 257 257 257 257 257 257 257 257 262 259 257 258 259 258 256 255 254 253 249 247 244
279 279 279 279 278 278 278 277 275 272 270 268 266 264 263 262 261 259 258 259 258 258 257 257 258 258 259 259 258 260 263 262 258 257 258 257 256 254 254 251 247 246 243
Wind_Speed
6 6 7 11 11 8 9 10 12 11 11 13 12 12 12 12 12 11 12 12 13 12 12 12 11 11 10 11 9 9 11 12 11 12 3 2 3 5 4 4 6 6 8
6 8 8 9 9 9 9 11 10 10 11 11 12 12 12 13 12 13 13 12 13 13 13 13 12 10 14 12 11 15 9 8 12 17 5 4 5 2 3 1 2 3 5
6 7 7 8 9 8 11 11 10 11 11 11 11 12 12 13 13 13 13 13 13 13 13 13 12 12 11 11 11 10 11 6 6 11 10 1 2 2 1 3 2 2 3
6 6 7 10 10 9 11 11 12 12 12 12 11 12 12 13 13 12 12 12 13 12 12 12 12 14 14 11 10 12 10 8 8 6 3 3 2 3 2 2 1 2 2
6 7 9 10 10 11 10 11 12 11 11 11 11 11 12 11 8 10 10 12 11 10 10 10 11 11 12 14 9 4 4 3 2 7 5 3 3 2 4 3 3 1 2
6 8 9 9 10 11 11 11 12 12 12 10 10 11 12 8 14 17 15 9 9 8 8 9 8 8 11 17 21 18 11 4 5 6 4 7 5 4 3 4 3 2 1
7 8 7 8 10 11 11 11 12 12 11 10 10 10 10 9 16 18 16 7 8 7 8 7 6 6 8 7 8 13 10 13 15 7 7 5 5 7 7 4 3 3 2
7 7 7 9 10 11 11 11 11 10 10 9 10 10 8 8 17 18 17 7 6 7 7 7 7 6 5 6 5 5 6 8 10 9 10 5 3 8 7 5 5 7 5
6 6 6 8 10 10 11 11 12 10 10 9 8 9 8 9 16 19 16 4 4 5 5 6 6 6 9 11 5 4 2 2 7 14 14 15 15 15 11 9 6 7 3
6 6 5 5 7 9 10 10 9 8 10 9 8 6 7 9 16 21 12 0 3 2 4 6 9 7 10 10 5 6 6 0 9 12 10 15 15 16 16 7 6 7 5
5 5 5 5 6 7 8 8 9 8 9 6 6 6 7 9 13 19 12 2 3 2 3 4 4 12 13 12 10 6 7 8 14 13 11 9 9 10 9 9 10 6 4
4 4 5 4 4 4 7 6 8 7 6 5 7 7 5 7 15 17 14 11 7 2 3 3 2 4 7 13 11 21 20 12 9 10 10 9 8 9 10 11 14 14 12
4 5 4 3 4 4 6 7 7 7 6 6 7 6 6 5 5 16 15 17 16 8 7 15 20 20 21 18 20 20 13 8 9 11 11 10 9 9 11 11 13 16 18
5 6 4 3 2 4 3 3 6 7 7 6 7 7 6 5 4 5 6 6 10 8 9 9 15 17 17 12 11 12 9 8 10 11 11 10 9 8 9 7 9 10 13
6 6 5 3 3 3 3 1 3 5 6 5 5 5 6 5 4 6 5 4 4 6 4 5 7 7 9 9 10 9 9 9 11 10 10 10 9 9 8 6 8 10 11
6 5 5 4 3 3 2 3 2 6 11 14 13 8 4 8 9 9 10 11 10 8 5 6 7 7 8 8 9 9 9 11 9 9 9 9 9 9 9 8 9 9 10
8 6 4 4 4 4 2 3 1 4 5 10 14 13 11 9 10 10 11 14 12 9 6 6 7 7 7 7 8 8 9 8 9 9 9 9 9 9 10 8 8 9 10
8 8 6 5 5 4 4 4 2 2 1 3 5 8 12 13 11 7 6 6 6 8 6 6 6 6 7 7 7 8 8 8 8 8 9 8 8 9 9 8 7 9 8
6 7 6 6 5 6 4 3 3 3 2 2 3 2 5 7 7 10 12 4 5 5 5 6 6 6 6 6 7 7 8 7 7 8 8 8 8 8 9 8 8 9 10
7 9 7 6 5 6 4 4 3 3 3 2 3 3 2 3 3 4 4 3 4 4 4 5 4 5 6 6 7 7 8 8 8 8 8 7 7 7 9 8 7 8 6
6 5 10 5 7 7 7 7 5 5 4 3 3 3 4 3 3 2 2 3 3 3 4 5 4 4 4 6 7 7 8 7 7 7 7 7 7 8 7 8 8 7 7
7 6 6 9 7 8 8 7 7 6 5 5 2 1 9 4 3 3 3 2 2 2 2 4 5 4 3 4 6 8 8 8 7 7 8 7 8 8 7 7 7 7 7
7 7 7 7 8 8 8 7 7 7 6 6 5 3 2 4 3 2 4 2 2 4 3 4 6 5 4 4 4 6 9 8 6 8 10 8 7 7 7 8 7 6 5
8 9 10 8 8 9 9 9 8 9 7 7 6 5 4 4 4 5 4 3 3 3 4 4 4 6 6 5 5 5 7 6 6 7 9 10 9 8 7 7 6 5 5
9 9 9 9 10 10 10 9 9 9 8 7 7 6 5 5 6 5 4 4 4 4 4 5 4 7 8 9 9 8 10 10 8 8 8 9 10 9 7 7 6 4 4
9 10 10 9 9 10 11 11 11 10 10 8 8 8 8 7 6 7 6 6 6 5 5 4 6 10 11 10 10 11 13 13 10 9 8 9 9 7 7 8 7 4 4
Wind_Direction
313 296 282 317 307 289 288 293 301 299 300 297 292 284 275 272 266 263 259 261 260 259 256 258 259 257 257 259 257 251 256 247 263 255 211 278 284 236 266 245 200 192 200
292 288 279 296 299 297 295 295 294 296 297 287 283 280 279 274 271 266 264 261 259 258 254 250 254 255 249 252 248 246 258 249 240 245 195 191 228 269 248 181 331 226 182
278 273 284 302 303 305 303 300 297 293 289 283 284 282 280 276 274 271 270 267 263 260 255 248 252 254 248 243 252 243 239 247 245 242 237 149 140 214 50 48 41 52 60
283 283 301 318 313 307 301 303 300 294 290 289 287 284 282 280 278 278 276 273 268 262 255 246 250 251 245 253 257 261 253 248 248 274 243 137 128 224 128 138 46 30 60
308 306 317 316 306 306 303 298 296 294 291 289 287 286 287 281 282 289 286 281 268 262 253 248 250 249 256 254 263 221 228 196 259 250 213 135 169 166 177 154 110 107 35
307 304 311 308 311 307 306 304 302 298 295 291 293 291 287 282 293 298 291 288 275 250 250 254 243 239 248 262 248 251 252 238 273 258 168 190 181 169 129 144 124 118 172
306 290 298 303 309 306 304 303 301 297 294 294 294 289 288 301 312 304 295 283 279 254 251 250 246 244 236 274 258 238 235 230 232 240 190 193 162 175 135 126 138 125 115
297 290 298 315 312 312 310 309 305 297 296 298 294 290 300 315 312 312 299 267 255 270 251 247 251 249 233 238 244 248 254 252 233 229 208 155 96 136 137 121 118 98 73
281 281 292 316 310 317 317 315 315 305 305 301 296 299 318 317 316 316 304 255 268 245 250 250 236 240 235 243 224 233 201 327 90 98 95 100 108 109 116 120 124 129 92
264 267 281 285 302 316 313 313 306 309 309 304 299 309 319 322 328 325 335 214 268 259 264 267 239 238 253 263 216 158 141 332 107 83 67 64 63 63 52 53 135 127 128
251 264 281 286 297 303 306 312 308 323 308 288 317 329 336 345 340 341 358 323 271 278 268 272 243 239 247 258 198 158 126 110 96 90 82 69 62 62 55 55 56 74 101
227 271 280 286 286 305 304 320 311 328 304 318 344 350 349 358 357 -0 26 38 26 18 341 308 271 213 130 118 110 122 111 100 92 88 84 75 70 68 64 65 66 67 56
235 269 269 281 300 302 318 350 333 334 343 354 1 346 351 354 2 358 24 52 49 53 48 63 68 77 84 83 99 100 94 95 97 92 90 86 85 89 92 83 78 80 65
244 261 262 245 268 307 302 351 356 345 1 10 2 353 350 350 360 0 2 10 30 36 48 60 71 76 78 82 77 71 77 87 98 99 99 95 89 81 74 74 86 83 77
232 250 252 230 214 259 283 265 6 338 12 13 9 351 1 4 11 44 53 28 28 39 39 64 67 68 73 73 74 76 82 85 89 93 94 91 82 75 62 58 66 74 86
240 231 229 217 232 211 252 299 342 26 23 37 32 28 0 31 40 53 66 70 71 64 51 63 67 68 74 81 84 83 76 83 87 94 89 88 90 86 84 69 72 80 94
231 231 211 202 210 212 220 240 229 325 1 40 36 31 33 33 43 60 71 72 71 74 72 66 71 69 71 71 77 80 83 74 84 83 88 91 94 93 88 84 83 82 75
225 231 209 205 202 209 211 225 205 165 308 309 11 45 42 34 25 38 65 62 54 39 52 66 70 69 76 84 85 88 83 76 76 82 84 86 89 93 94 90 85 94 92
215 228 211 207 196 196 174 199 218 169 179 284 313 14 35 11 12 45 63 69 91 76 65 68 62 71 71 72 71 73 80 82 85 89 86 87 89 100 94 89 92 92 94
226 224 200 195 186 190 172 184 203 186 179 180 280 267 337 37 42 31 34 42 74 74 74 85 70 73 85 91 93 95 92 85 85 86 88 90 89 97 103 102 94 100 88
224 209 205 186 191 192 184 192 200 196 172 171 237 247 180 119 141 108 92 68 70 80 96 100 88 85 85 91 95 94 93 94 92 97 99 95 99 101 97 94 94 99 106
215 210 190 210 196 191 191 184 181 200 176 161 192 232 128 102 123 121 100 89 101 87 63 102 92 76 67 99 114 110 107 108 104 103 102 104 103 96 99 105 103 94 92
213 205 196 205 203 190 180 177 176 189 178 162 146 144 134 127 124 106 115 100 80 91 66 85 105 95 75 80 78 119 129 131 131 127 113 108 110 112 108 105 112 107 107
215 211 206 204 195 193 188 180 178 177 176 165 158 161 164 141 136 125 116 106 97 91 92 95 92 110 104 87 77 80 93 95 92 104 123 122 110 103 108 109 106 105 109
212 209 205 198 197 197 187 179 174 168 176 169 160 153 146 142 137 138 138 126 112 105 92 103 106 117 112 107 105 102 111 101 104 104 102 111 118 117 111 110 115 95 90
214 207 205 198 195 192 192 181 175 169 171 174 166 160 158 162 151 146 145 134 123 114 117 108 117 121 118 113 110 111 114 113 106 101 111 118 118 114 114 112 103 94 105